timestamp,surface_pressure_avg,surface_temp_avg,battery_voltage,lat,long
2020-11-21 00:09:01+00:00,227.2997,7.0,12.57,47.84626,-54.09684
2020-11-21 00:19:01+00:00,223.9798,7.0,12.57,47.84626,-54.09684
2020-11-21 00:29:01+00:00,224.8664,7.0,12.57,47.84626,-54.09684
2020-11-21 00:39:01+00:00,230.9331,6.99,12.57,47.84626,-54.09684
2020-11-21 00:49:01+00:00,230.5098,6.99,12.57,47.84626,-54.09684
2020-11-21 00:59:01+00:00,228.2481,6.91,12.57,47.84626,-54.09684
2020-11-21 01:09:01+00:00,230.5414,6.9,12.57,47.84626,-54.09684
2020-11-21 01:19:01+00:00,236.9931,6.91,12.57,47.84626,-54.09684
2020-11-21 01:29:01+00:00,243.8181,6.96,12.57,47.84626,-54.09684
2020-11-21 01:39:01+00:00,245.4197,6.97,12.57,47.84626,-54.09684
2020-11-21 01:49:01+00:00,250.1248,6.98,12.57,47.84626,-54.09684
2020-11-21 01:59:01+00:00,257.2148,6.97,12.57,47.84626,-54.09684
2020-11-21 02:09:01+00:00,265.328,6.92,12.57,47.84626,-54.09684
2020-11-21 02:19:01+00:00,267.8581,6.9,12.57,47.84626,-54.09684
2020-11-21 02:29:01+00:00,274.5864,6.9,12.57,47.84626,-54.09684
2020-11-21 02:39:01+00:00,281.4313,6.9,12.57,47.84626,-54.09684
2020-11-21 02:49:01+00:00,285.4763,6.9,12.57,47.84626,-54.09684
2020-11-21 02:59:01+00:00,283.3763,6.9,12.57,47.84626,-54.09684
2020-11-21 03:09:01+00:00,285.973,6.9,12.57,47.84626,-54.09684
2020-11-21 03:19:01+00:00,289.2297,6.9,12.57,47.84626,-54.09684
2020-11-21 03:29:01+00:00,291.9064,6.9,12.57,47.84626,-54.09684
2020-11-21 03:39:01+00:00,292.3047,6.9,12.57,47.84626,-54.09684
2020-11-21 03:49:01+00:00,294.2164,6.9,12.57,47.84626,-54.09684
2020-11-21 03:59:01+00:00,298.3313,6.9,12.57,47.84626,-54.09684
2020-11-21 04:09:01+00:00,299.983,6.9,12.57,47.84626,-54.09684
2020-11-21 04:19:01+00:00,299.3997,6.8,12.57,47.84626,-54.09684
2020-11-21 04:29:01+00:00,303.2413,6.8,12.57,47.84626,-54.09684
2020-11-21 04:39:01+00:00,305.9563,6.8,12.57,47.84626,-54.09684
2020-11-21 04:49:01+00:00,303.7746,6.8,12.57,47.84626,-54.09684
2020-11-21 04:59:01+00:00,297.828,6.7,12.57,47.84626,-54.09684
2020-11-21 05:09:01+00:00,300.6564,6.6,12.57,47.84626,-54.09684
2020-11-21 05:19:01+00:00,303.8914,6.8,12.57,47.84626,-54.09684
2020-11-21 05:29:01+00:00,300.1013,6.9,12.57,47.84626,-54.09684
2020-11-21 05:39:01+00:00,298.0047,6.89,12.57,47.84626,-54.09684
2020-11-21 05:49:01+00:00,300.4414,6.88,12.57,47.84626,-54.09684
2020-11-21 05:59:01+00:00,298.3964,6.9,12.57,47.84626,-54.09684
2020-11-21 06:09:01+00:00,287.1231,6.8,12.57,47.84626,-54.09684
2020-11-21 06:19:01+00:00,282.9497,6.78,12.57,47.84626,-54.09684
2020-11-21 06:29:01+00:00,282.2415,6.8,12.57,47.84626,-54.09684
2020-11-21 06:39:01+00:00,273.9047,6.84,12.57,47.84626,-54.09684
2020-11-21 06:49:01+00:00,262.9798,6.8,12.57,47.84626,-54.09684
2020-11-21 06:59:01+00:00,257.3315,6.8,12.57,47.84626,-54.09684
2020-11-21 07:09:01+00:00,252.7981,6.8,12.57,47.84626,-54.09684
2020-11-21 07:19:01+00:00,242.5681,6.79,12.57,47.84626,-54.09684
2020-11-21 07:29:01+00:00,237.6931,6.79,12.57,47.84626,-54.09684
2020-11-21 07:39:01+00:00,236.1464,6.73,12.57,47.84626,-54.09684
2020-11-21 07:49:01+00:00,226.2931,6.75,12.57,47.84626,-54.09684
2020-11-21 07:59:01+00:00,215.7097,6.7,12.57,47.84626,-54.09684
2020-11-21 08:09:01+00:00,215.4965,6.62,12.57,47.84626,-54.09684
2020-11-21 08:19:01+00:00,217.4614,6.68,12.57,47.84626,-54.09684
2020-11-21 08:29:01+00:00,212.8048,6.6,12.57,47.84626,-54.09684
2020-11-21 08:39:01+00:00,207.4381,6.5,12.57,47.84626,-54.09684
2020-11-21 08:49:01+00:00,207.8864,6.4,12.57,47.84626,-54.09684
2020-11-21 08:59:01+00:00,209.2047,6.4,12.57,47.84626,-54.09684
2020-11-21 09:09:01+00:00,206.3331,6.41,12.57,47.84626,-54.09684
2020-11-21 09:19:01+00:00,203.1714,6.47,12.49,47.84626,-54.09684
2020-11-21 09:29:01+00:00,205.7214,6.5,12.49,47.84626,-54.09684
2020-11-21 09:39:01+00:00,206.2314,6.5,12.49,47.84626,-54.09684
2020-11-21 09:49:01+00:00,201.4798,6.5,12.49,47.84626,-54.09684
2020-11-21 09:59:01+00:00,206.7981,6.5,12.49,47.84626,-54.09684
2020-11-21 10:09:01+00:00,216.1964,6.5,12.49,47.84626,-54.09684
2020-11-21 10:19:01+00:00,215.3498,6.54,12.49,47.84626,-54.09684
2020-11-21 10:29:01+00:00,215.0681,6.57,12.49,47.84626,-54.09684
2020-11-21 10:39:01+00:00,224.9348,6.59,12.49,47.84626,-54.09684
2020-11-21 10:49:01+00:00,229.3898,6.6,12.49,47.84626,-54.09684
2020-11-21 10:59:01+00:00,226.4848,6.6,12.49,47.84626,-54.09684
2020-11-21 11:09:01+00:00,229.3298,6.6,12.49,47.84626,-54.09684
2020-11-21 11:19:01+00:00,234.6131,6.6,12.49,47.84626,-54.09684
2020-11-21 11:29:01+00:00,235.3114,6.6,12.49,47.84626,-54.09684
2020-11-21 11:39:01+00:00,235.7831,6.6,12.49,47.84626,-54.09684
2020-11-21 11:49:01+00:00,242.8831,6.6,12.49,47.84626,-54.09684
2020-11-21 11:59:01+00:00,247.8898,6.6,12.49,47.84626,-54.09684
2020-11-21 12:09:01+00:00,248.8931,6.61,12.49,47.84626,-54.09684
2020-11-21 12:19:01+00:00,251.8897,6.63,12.49,47.84626,-54.09684
2020-11-21 12:29:01+00:00,254.8448,6.67,12.49,47.84626,-54.09684
2020-11-21 12:39:01+00:00,254.5697,6.7,12.49,47.84626,-54.09684
2020-11-21 12:49:01+00:00,253.778,6.7,12.49,47.84626,-54.09684
2020-11-21 12:59:01+00:00,263.7114,6.73,12.49,47.84626,-54.09684
2020-11-21 13:09:01+00:00,271.4981,6.8,12.49,47.84626,-54.09684
2020-11-21 13:19:01+00:00,272.0347,6.8,12.49,47.84626,-54.09684
2020-11-21 13:29:01+00:00,275.3097,6.79,12.49,47.84626,-54.09684
2020-11-21 13:39:01+00:00,283.1947,6.89,12.49,47.84626,-54.09684
2020-11-21 13:49:01+00:00,292.6863,6.9,12.49,47.84626,-54.09684
2020-11-21 13:59:01+00:00,298.028,6.9,12.49,47.84626,-54.09684
2020-11-21 14:09:01+00:00,307.0214,6.9,12.49,47.84626,-54.09684
2020-11-21 14:19:01+00:00,311.4164,6.91,12.49,47.84626,-54.09684
2020-11-21 14:29:01+00:00,319.543,6.91,12.49,47.84626,-54.09684
2020-11-21 14:39:01+00:00,329.658,6.9,12.49,47.84626,-54.09684
2020-11-21 14:49:01+00:00,332.3780000000001,6.93,12.49,47.84626,-54.09684
2020-11-21 14:59:01+00:00,334.61300000000006,6.93,12.49,47.84626,-54.09684
2020-11-21 15:09:01+00:00,343.2863,6.95,12.49,47.84626,-54.09684
2020-11-21 15:19:01+00:00,349.4914,7.0,12.49,47.84626,-54.09684
2020-11-21 15:29:01+00:00,348.4162,7.0,12.49,47.84626,-54.09684
2020-11-21 15:39:01+00:00,344.6545,7.0,12.49,47.84626,-54.09684
2020-11-21 15:49:01+00:00,352.0179,7.0,12.49,47.84626,-54.09684
2020-11-21 15:59:01+00:00,351.5997,7.0,12.49,47.84626,-54.09684
2020-11-21 16:09:01+00:00,345.8363,7.0,12.49,47.84626,-54.09684
2020-11-21 16:19:01+00:00,352.8463,7.0,12.65,47.84626,-54.09684
2020-11-21 16:29:01+00:00,360.0463,7.0,12.65,47.84626,-54.09684
2020-11-21 16:39:01+00:00,356.3246,7.0,12.65,47.84626,-54.09684
2020-11-21 16:49:01+00:00,354.9979,7.0,12.65,47.84626,-54.09684
2020-11-21 16:59:01+00:00,362.2413,7.0,12.65,47.84626,-54.09684
2020-11-21 17:09:01+00:00,358.8279,6.97,12.65,47.84626,-54.09684
2020-11-21 17:19:01+00:00,353.403,6.9,12.97,47.84626,-54.09684
2020-11-21 17:29:01+00:00,353.9612,6.9,12.97,47.84626,-54.09684
2020-11-21 17:39:01+00:00,355.7563,6.99,12.97,47.84626,-54.09684
2020-11-21 17:49:01+00:00,351.4396,7.0,12.97,47.84626,-54.09684
2020-11-21 17:59:01+00:00,347.7546,7.0,12.97,47.84626,-54.09684
2020-11-21 18:09:01+00:00,348.7412,6.99,12.97,47.84626,-54.09684
2020-11-21 18:19:01+00:00,340.8896,6.96,13.37,47.84626,-54.09684
2020-11-21 18:29:01+00:00,334.4863,6.94,13.37,47.84626,-54.09684
2020-11-21 18:39:01+00:00,330.6796,6.94,13.37,47.84626,-54.09684
2020-11-21 18:49:01+00:00,324.3097,6.91,13.37,47.84626,-54.09684
2020-11-21 18:59:01+00:00,314.463,6.9,13.37,47.84626,-54.09684
2020-11-21 19:09:01+00:00,308.133,6.9,13.37,47.84626,-54.09684
2020-11-21 19:19:01+00:00,305.0413,6.9,13.13,47.84626,-54.09684
2020-11-21 19:29:01+00:00,292.1397,6.7,13.13,47.84626,-54.09684
2020-11-21 19:39:01+00:00,285.7097,6.78,13.13,47.84626,-54.09684
2020-11-21 19:49:01+00:00,284.7031,6.8,13.13,47.84626,-54.09684
2020-11-21 19:59:01+00:00,280.4264,6.7,13.13,47.84626,-54.09684
2020-11-21 20:09:01+00:00,268.8781,6.6,13.13,47.84626,-54.09684
2020-11-21 20:19:01+00:00,262.6898,6.59,12.97,47.84626,-54.09684
2020-11-21 20:29:01+00:00,257.2564,6.59,12.97,47.84626,-54.09684
2020-11-21 20:39:01+00:00,250.1815,6.58,12.97,47.84626,-54.09684
2020-11-21 20:49:01+00:00,244.3797,6.58,12.97,47.84626,-54.09684
2020-11-21 20:59:01+00:00,245.1614,6.5,12.97,47.84626,-54.09684
2020-11-21 21:09:01+00:00,244.758,6.44,12.97,47.84626,-54.09684
2020-11-21 21:19:01+00:00,239.9881,6.4,12.89,47.84626,-54.09684
2020-11-21 21:29:01+00:00,238.0147,6.46,12.89,47.84626,-54.09684
2020-11-21 21:39:01+00:00,235.9097,6.49,12.89,47.84626,-54.09684
2020-11-21 21:49:01+00:00,233.7497,6.4,12.89,47.84626,-54.09684
2020-11-21 21:59:01+00:00,232.5798,6.43,12.89,47.84626,-54.09684
2020-11-21 22:09:01+00:00,235.8264,6.5,12.89,47.84626,-54.09684
2020-11-21 22:19:01+00:00,237.7664,6.59,12.81,47.84626,-54.09684
2020-11-21 22:29:01+00:00,237.5681,6.6,12.81,47.84626,-54.09684
2020-11-21 22:39:01+00:00,238.693,6.6,12.81,47.84626,-54.09684
2020-11-21 22:49:01+00:00,243.2931,6.6,12.81,47.84626,-54.09684
2020-11-21 22:59:01+00:00,242.0848,6.6,12.81,47.84626,-54.09684
2020-11-21 23:09:01+00:00,237.8813,6.6,12.81,47.84626,-54.09684
2020-11-21 23:19:01+00:00,238.0298,6.56,12.73,47.84626,-54.09684
2020-11-21 23:29:01+00:00,241.3697,6.55,12.73,47.84626,-54.09684
2020-11-21 23:39:01+00:00,238.8731,6.6,12.73,47.84626,-54.09684
2020-11-21 23:49:01+00:00,235.5281,6.6,12.73,47.84626,-54.09684
2020-11-21 23:59:01+00:00,238.3914,6.6,12.73,47.84626,-54.09684
